Regional Weather Roundup
Issued by NWS

Home | Current Version | Previous Version | Text Only | Print | Product List | Glossary Off
Versions: 1 2 3 4 5 6 7 8 9 10 11 12 13 14 15 16 17 18 19 20 21 22 23 24 25 26 27

000
ASUS45 KCYS 202110
RWRWY

WYOMING REGIONAL WEATHER ROUNDUP
NATIONAL WEATHER SERVICE CHEYENNE WY
300 PM MDT FRI OCT 20 2017

NOTE:  "FAIR" INDICATES FEW OR NO CLOUDS BELOW 12,000 FEET
WITH NO SIGNIFICANT WEATHER AND/OR OBSTRUCTIONS TO VISIBILITY.

WYZ001-202200-
YELLOWSTONE NATIONAL PARK

CITY           SKY/WX    TMP DP  RH WIND       PRES   REMARKS
LK YELLOWSTONE   N/A     34  28  79 SW9       29.66R WCI  27
W YELLOWSTONE  NOT AVBL

$$
WYZ002>013-054>058-071-098>099-202200-
NORTHERN WYOMING

CITY           SKY/WX    TMP DP  RH WIND       PRES   REMARKS
JACKSON        NOT AVBL
CODY           FAIR      60  34  37 SW30G43   29.40S
GREYBULL       LGT RAIN  70  33  25 NW14      29.31S
WORLAND        FAIR      74  27  17 SW22G35   29.32F
SHERIDAN       FAIR      75  33  21 SW17      29.29F
BUFFALO        FAIR      74  26  16 SW16G24   29.38F
GILLETTE       FAIR      74  33  22 SW20G36   29.36F
HULETT         FAIR      77  32  19 SW26G35   29.36F
NEWCASTLE      FAIR      77  27  15 S20G30    29.43F

$$
WYZ014>020-022>026-101>103-202200-
CENTRAL WYOMING

CITY           SKY/WX    TMP DP  RH WIND       PRES   REMARKS
BIG PINEY      FAIR      53  27  36 W25G38    29.65R
PINEDALE       CLOUDY    52  23  32 W21G30    29.64R
DUBOIS         MOCLDY    46  28  49 W31G44    29.51F
LANDER         FAIR      66  26  22 W20G30    29.44F
RIVERTON       FAIR      68  25  19 SW23G38   29.43F
CASPER         FAIR      71  28  20 SW28G39   29.47F
DOUGLAS        FAIR      71  28  20 SW24G31   29.48F

$$
WYZ021-027>030-104>119-202200-
SOUTHERN WYOMING

CITY           SKY/WX    TMP DP  RH WIND       PRES   REMARKS
EVANSTON       PTSUNNY   41  30  65 W22G37    29.78R
KEMMERER       FAIR      43  28  56 W29G37    29.71R
FORT BRIDGER   MOCLDY    48  28  47 W31G44    29.75R
ROCK SPRINGS   CLOUDY    59  18  20 W28G40    29.60R
DIXON          FAIR      68  22  18 SW26G37   29.66F
RAWLINS        FAIR      65  23  20 SW38G49   29.60S
SARATOGA       FAIR      59  28  31 SW31G44   29.65S
LARAMIE        FAIR      66  24  20 SW24G31   29.65F
CHEYENNE       FAIR      71  30  21 S13       29.60F
TORRINGTON     FAIR      77  32  19 SW9       29.46F
PINE BLUFFS    FAIR      73  28  19 SW13G23   29.57F

$$




USA.gov is the U.S. government's official web portal to all federal, state and local government web resources and services.